Cocoa Beach, FL

2:38 PM EST on November 18, 2017 (GMT -0500)
Cape Canaveral Air Station Skid Strip

Weather History for KXMR - November, 2013

Change the Weather History Date:

Wednesday, November 13, 2013

  Actual Average (KCOF) Record (KCOF)
Temperature  
Mean Temperature 67 °F -  
Max Temperature 70 °F 75 °F 84 °F (2003)
Min Temperature 64 °F 63 °F 60 °F (2002)
Cooling Degree Days 2    
Growing Degree Days 17 (Base 50)    
Moisture  
Dew Point 53 °F    
Average Humidity 61    
Maximum Humidity 73    
Minimum Humidity 46    
Precipitation  
Precipitation 0.00 in - - ()
Sea Level Pressure  
Sea Level Pressure 30.20 in    
Wind  
Wind Speed 18 mph (North)    
Max Wind Speed 25 mph    
Max Gust Speed 36 mph    
Visibility 10 miles    
Events      
Averages and records for this station are not official NWS values.
T = Trace of Precipitation, MM = Missing Value Source: NWS Daily Summary

Daily Weather History Graph

Daily Weather History Graph

Search for Another Location

Airport or City:

Trip Planner

Search our weather history database for the weather conditions in past years. The results will help you decide how hot, cold, wet, or windy it might be!

Date:

Astronomy

Nov. 13, 2013 Rise Set
Actual Time 6:43 AM EST 5:29 PM EST
Civil Twilight 6:18 AM EST 5:54 PM EST
Nautical Twilight 5:50 AM EST 6:22 PM EST
Astronomical Twilight 5:22 AM EST 6:50 PM EST
Moon 3:00 PM EST (11/13) 2:53 AM EST (11/13)
Length of Visible Light 11h 36m
Length of Day
10h 46m
Waxing Gibbous, 84% of the Moon is Illuminated
Nov 13
Waxing Gibbous
Nov 17
Full
Nov 25
Last Quarter
Dec 2
New
Dec 9
First Quarter

Hourly Weather History & Observations

Time (EST) Temp. Dew Point Humidity Pressure Visibility Wind Dir Wind Speed Gust Speed Precip Events Conditions
12:58 AM 68.9 °F 56.5 °F 65% 30.08 in 10.0 mi North 10.4 mph - N/A   Clear
1:58 AM 70.2 °F 53.1 °F 55% 30.08 in 10.0 mi North 11.5 mph - N/A   Scattered Clouds
2:58 AM 68.9 °F 55.9 °F 63% 30.08 in 10.0 mi North 21.9 mph 29.9 mph N/A   Scattered Clouds
3:58 AM 67.8 °F 58.1 °F 71% 30.08 in 10.0 mi North 18.4 mph 21.9 mph N/A   Partly Cloudy
4:58 AM 68.5 °F 57.4 °F 67% 30.10 in 10.0 mi North 23.0 mph 29.9 mph N/A   Mostly Cloudy
5:13 AM 68.0 °F 57.2 °F 68% 30.09 in 10.0 mi North 23.0 mph 29.9 mph N/A   Mostly Cloudy
5:23 AM 68.0 °F 57.2 °F 68% 30.10 in 10.0 mi North 21.9 mph 28.8 mph N/A   Scattered Clouds
5:38 AM 68.0 °F 57.2 °F 68% 30.11 in 10.0 mi North 21.9 mph 26.5 mph N/A   Mostly Cloudy
5:48 AM 68.0 °F 57.2 °F 68% 30.11 in 10.0 mi North 21.9 mph 33.4 mph N/A   Scattered Clouds
5:58 AM 67.5 °F 58.1 °F 72% 30.11 in 10.0 mi North 20.7 mph 33.4 mph N/A   Scattered Clouds
6:18 AM 66.2 °F 57.2 °F 73% 30.12 in 10.0 mi North 24.2 mph 32.2 mph N/A   Mostly Cloudy
6:58 AM 66.4 °F 55.8 °F 69% 30.15 in 10.0 mi North 20.7 mph 33.4 mph N/A   Overcast
7:58 AM 66.4 °F 54.9 °F 66% 30.19 in 10.0 mi North 20.7 mph 31.1 mph N/A   Mostly Cloudy
8:58 AM 66.6 °F 54.7 °F 66% 30.22 in 10.0 mi North 17.3 mph 32.2 mph N/A   Mostly Cloudy
9:13 AM 66.2 °F 55.4 °F 68% 30.22 in 10.0 mi North 20.7 mph 34.5 mph N/A   Mostly Cloudy
9:28 AM 66.2 °F 55.4 °F 68% 30.22 in 10.0 mi North 21.9 mph 34.5 mph N/A   Mostly Cloudy
9:53 AM 68.0 °F 53.6 °F 60% 30.22 in 10.0 mi North 21.9 mph 34.5 mph N/A   Mostly Cloudy
9:58 AM 67.3 °F 54.1 °F 63% 30.23 in 10.0 mi North 23.0 mph 35.7 mph N/A   Mostly Cloudy
10:03 AM 68.0 °F 53.6 °F 60% 30.22 in 10.0 mi North 19.6 mph 35.7 mph N/A   Mostly Cloudy
10:13 AM 66.2 °F 53.6 °F 64% 30.22 in 10.0 mi North 24.2 mph 35.7 mph N/A   Mostly Cloudy
10:18 AM 66.2 °F 53.6 °F 64% 30.23 in 10.0 mi North 25.3 mph 33.4 mph N/A   Mostly Cloudy
10:58 AM 68.0 °F 53.2 °F 59% 30.23 in 10.0 mi North 21.9 mph 34.5 mph N/A   Scattered Clouds
11:58 AM 68.4 °F 52.9 °F 58% 30.23 in 10.0 mi North 20.7 mph 33.4 mph N/A   Scattered Clouds
12:58 PM 66.7 °F 52.7 °F 61% 30.23 in 10.0 mi North 21.9 mph 34.5 mph N/A   Mostly Cloudy
1:58 PM 66.9 °F 51.6 °F 58% 30.23 in 10.0 mi North 20.7 mph 27.6 mph N/A   Mostly Cloudy
2:58 PM 68.4 °F 50.0 °F 52% 30.23 in 10.0 mi NNE 18.4 mph 27.6 mph N/A   Scattered Clouds
3:58 PM 66.9 °F 45.5 °F 46% 30.25 in 10.0 mi NNE 13.8 mph 23.0 mph N/A   Partly Cloudy
4:58 PM 65.1 °F 46.8 °F 51% 30.26 in 10.0 mi NNE 15.0 mph 27.6 mph N/A   Mostly Cloudy
5:58 PM 64.4 °F 47.1 °F 53% 30.27 in 10.0 mi NNE 16.1 mph 23.0 mph N/A   Clear
6:58 PM 65.1 °F 45.1 °F 48% 30.29 in 10.0 mi NNE 15.0 mph 25.3 mph N/A   Mostly Cloudy
7:58 PM 65.1 °F 49.1 °F 56% 30.31 in 10.0 mi NE 16.1 mph 26.5 mph N/A   Mostly Cloudy
8:58 PM 65.1 °F 49.1 °F 56% 30.31 in 10.0 mi NE 17.3 mph 26.5 mph N/A   Overcast
9:58 PM 65.3 °F 47.1 °F 52% 30.32 in 10.0 mi NE 15.0 mph 18.4 mph N/A   Mostly Cloudy
10:58 PM 65.5 °F 46.4 °F 50% 30.31 in 10.0 mi NE 13.8 mph 19.6 mph N/A   Overcast
11:58 PM 65.7 °F 46.8 °F 50% 30.30 in 10.0 mi ENE 13.8 mph 20.7 mph N/A   Overcast